Starlink 3681

operational
NORAD ID: 51968 Int'l Des: 2022-025 Owner: SPXS Country: US Constellation: starlink
LEOCIRCULARSTARLINK_TYPE

About Starlink 3681

Description loading...

Live Position

Loading 3D Globe...

Upcoming Passes

Altitude History

Altitude vs Time

uPlot chart will show altitude changes over time

Two-Line Element Set

1 51968U 22025N 26020.02847708 .00000580 00000-0 57806-4 0 9999
2 51968 53.0551 245.3763 0001426 90.3646 269.7507 15.06394766213640
Epoch: Jan 20, 2026 • Age: 17 hours

Current Status

Altitude 549.5 km
Velocity 7.59 km/s
Sub-Earth Point -7.25°S, 155.88°W
Launch Date Mar 9, 2022
Age 3.8 years
Type internet

Technical Details

Classification Payload
Mass 297.00 kg
Dry Mass 275.00 kg
Total Mass 297.00 kg
Length 0.20 m
Diameter 2.80 m
Span 9.00 m
Shape Box + pan
Manufacturer SPXS
Bus Type Starlink
Phase Status In Orbit
Owner/State SPXS/US

Large Constellations

Loading constellations...